Preview of NWS' New Version of Forecast
This preview is not operational and should not be used for support decisions.

Regional Weather Roundup (RWR)

Issued by National Weather Service (NWS)

                            
000
ASUS43 KMKX 170700
RWRWI 

WISCONSIN REGIONAL WEATHER ROUNDUP
NATIONAL WEATHER SERVICE MILWAUKEE/SULLIVAN WI
100 AM CST SUN FEB 17 2019

NOTE: "FAIR" INDICATES FEW OR NO CLOUDS BELOW 12,000 FEET WITH NO
SIGNIFICANT WEATHER AND/OR OBSTRUCTIONS TO VISIBILITY.

WIZ001-002-006>008-014>016-023>028-170800-
NORTHWEST WISCONSIN
  
CITY           SKY/WX    TMP DP  RH WIND       PRES   REMARKS
SUPERIOR ARPT  FAIR      15  10  80 E9        30.13S WCI   4          
ASHLAND        FAIR      12   8  84 NE7       30.13R WCI   1          
HAYWARD        MOCLDY    12   8  84 NE6       30.06R WCI   3          
SIREN          CLOUDY    17  10  75 NE5       30.07R WCI  10          
CUMBERLAND     CLOUDY    16   7  67 E6        30.03S WCI   7          
RICE LAKE      CLOUDY    18  10  70 E7        30.06S WCI   8          
CHETEK         CLOUDY    17   8  69 E3        30.07R                  
LADYSMITH      FAIR       8   4  85 E3        30.06S                  
EAU CLAIRE     NOT AVBL                                               
MENOMONIE      MOCLDY    13   6  72 E8        30.06R WCI   2          
NEW RICHMOND   FAIR      15   7  70 E6        30.04R WCI   6          
OSCEOLA        CLOUDY    19  11  73 NE3       30.08S                  
$$
 
WIZ003>005-009-010-017-018-170800-
NORTH CENTRAL WISCONSIN
  
CITY           SKY/WX    TMP DP  RH WIND       PRES   REMARKS
MANITOWISH WTR NOT AVBL                                               
ARBOR VITAE    CLOUDY    17  12  82 SE3       30.04R                  
WOODRUFF       CLOUDY    17  12  82 SE3       30.04R                  
RHINELANDER    FAIR      11   5  77 NE5       30.04R WCI   3          
EAGLE RIVER    MOCLDY    12   7  83 E5        30.04S WCI   4          
LAND O LAKES   FAIR       5   2  89 CALM      30.07S                  
PHILLIPS       MOCLDY    10   6  82 NE3       30.03R                  
TOMAHAWK       FAIR       4   1  88 CALM      30.04S                  
MEDFORD        MOCLDY    11   5  79 E6        30.02R WCI   1          
MERRILL        FAIR       7   4  89 CALM      30.05R                  
$$
 
WIZ029-030-035-036-043>047-170800-
CENTRAL WISCONSIN
  
CITY           SKY/WX    TMP DP  RH WIND       PRES   REMARKS
WAUSAU         MOCLDY    11   6  81 E5        30.04R WCI   3          
MOSINEE        CLOUDY    14  10  85 E5        30.06R WCI   6          
MARSHFIELD     CLOUDY    14   8  77 E6        30.04R WCI   5          
STEVENS POINT  CLOUDY    12   8  81 NE3       30.05R                  
WAUPACA        CLOUDY    19  12  74 NE5       30.06R WCI  12          
WAUTOMA        CLOUDY    16  11  80 NE6       30.06R WCI   7          
WISC RAPIDS    CLOUDY    15   7  70 CALM      30.06R                  
CAMP DOUGLAS   NOT AVBL                                               
$$
 
WIZ011>013-019>022-031-037>040-048>050-170800-
NORTHEAST WISCONSIN
  
CITY           SKY/WX    TMP DP  RH WIND       PRES   REMARKS
ANTIGO         MOCLDY    10   7  85 E8        30.03S WCI  -1          
SHAWANO        CLOUDY    14   8  78 CALM      30.07F                  
OCONTO         CLOUDY    15   9  77 NE7       30.09F WCI   5          
STURGEON BAY   CLOUDY    18  14  84 NE9       30.09S WCI   7          
GREEN BAY      CLOUDY    16   9  74 NE17      30.06F WCI   0          
MANITOWOC      CLOUDY    24  18  77 E10       30.06S WCI  14          
APPLETON       CLOUDY    18   9  68 NE7       30.02S WCI   8          
CLINTONVILLE   CLOUDY    15   9  76 NE7       30.06S WCI   5          
OSHKOSH        CLOUDY    17  12  80 NE12      30.03R WCI   4          
$$
 
WIZ032>034-041-042-053>061-170800-
SOUTHWEST WISCONSIN
  
CITY           SKY/WX    TMP DP  RH WIND       PRES   REMARKS
LA CROSSE      CLOUDY    19  13  77 NE6       30.06R WCI  11          
SPARTA         CLOUDY    17  13  82 CALM      30.06R                  
VIROQUA        CLOUDY    18  16  92 NE6       30.00R WCI   9          
BOSCOBEL       CLOUDY    22  15  75 NE5       30.02S WCI  16          
PRAIRIE DU CHI CLOUDY    22  14  71 NE3       30.01F                  
PLATTEVILLE    CLOUDY    24  21  88 E8        29.99S WCI  15          
$$

WIZ056-057-062-063-064-067-068-170800-
SOUTH CENTRAL WISCONSIN
  
CITY           SKY/WX    TMP DP  RH WIND       PRES   REMARKS
REEDSBURG      CLOUDY    19  13  80 NE6       30.03R WCI  10          
BARABOO/DELLS  CLOUDY    19  13  80 NE5       30.03R WCI  12          
LONE ROCK      NOT AVBL                                               
MINERAL POINT  CLOUDY    25  21  86 E7        29.98R WCI  17          
MADISON        CLOUDY    21  16  81 NE6       30.01R WCI  13          
MIDDLETON      CLOUDY    23  18  83 NE6       30.01R WCI  15          
WATERTOWN      CLOUDY    24  19  83 CALM      30.00R                  
MONROE         CLOUDY    24  18  76 MISG      29.98S                  
JANESVILLE     CLOUDY    28  21  74 E9        30.00R WCI  20          
$$
 
WIZ051-052-058>065-066-070>072-170800-
SOUTHEAST WISCONSIN
  
CITY           SKY/WX    TMP DP  RH WIND       PRES   REMARKS
MILWAUKEE      CLOUDY    28  18  66 SE16      30.02R WCI  16          
WAUKESHA       CLOUDY    25  18  74 E13       30.00R WCI  13          
MILWAUKEE/TIMM CLOUDY    28  18  64 E10G16    30.03R WCI  19          
RACINE         CLOUDY    27  18  69 E16       30.02R WCI  15          
KENOSHA        CLOUDY    28  20  71 E13       30.00R WCI  17          
FOND DU LAC    CLOUDY    21  16  81 NE7       30.03R WCI  12          
SHEBOYGAN      CLOUDY    25  18  74 E15G23    30.03R WCI  13          
WEST BEND      CLOUDY    27  21  80 E9        29.99R WCI  17          
JUNEAU         CLOUDY    21  17  84 CALM      30.00R                  
$$

LSZ147-162-170800-
LAKE SUPERIOR
  
STATION/POSITION TIME  TEMP    WIND        PRES    WAVE
                       AIR SEA DIR/SP/G            HT/PER
                 (UTC) (F)     (DEG/KT/KT) (MB)    (FT/S)
DEVILS ISLAND    0600   18      80/ 12/ 14 1022.3R
SAXON HARBOR     0640    7      CALM  /  2 1020.0S
$$
 
LMZ867-665-643>646-170800-
LAKE MICHIGAN
  
STATION/POSITION TIME  TEMP    WIND        PRES    WAVE
                       AIR SEA DIR/SP/G            HT/PER
                 (UTC) (F)     (DEG/KT/KT) (MB)    (FT/S)
NORTHPORT PIER   0640   16      20/  6/  8 1019.6F
KEWAUNEE LAKESHO 0630   25      90/ 16/ 19 1017.6F
SHEBOYGAN LAKESH 0600   27      70/ 21/ 22 1017.5F
PORT WASHINGTON  0640   30     100/ 15/ 19 1017.3F
MILWAUKEE LAKESH 0630   28      90/ 21/ 23   N/A
KENOSHA   LAKESH 0600   27     100/ 17/ 23 1015.2
$$

TC  - TEMPERATURE IN CELSIUS
VSB - VISIBILITY IN STATUTE MILES
WCI - WIND CHILL INDEX
HX  - HEAT INDEX